Index of /videos

[ICO]NameLast modifiedSizeDescription

[PARENTDIR]Parent Directory  -  
[TXT]d.html2022-08-14 17:10 29K 
[TXT]00index.html2022-08-14 17:10 152  
[TXT]m.html2022-08-14 17:10 28K 
[VID]10418020726_20220813215233_THERULERSOFTHEDARKNESSLUCIFERIANDOCTRINE.mp42022-08-13 21:52 63M 
[VID]10418020730_20220813215229_FBIGarlandAreHeavilyScrewedNow.mp42022-08-13 21:52 157M 
[VID]10418020737_20220813215222_CountrylivingrevealstheABUNDANCEthatappearswhenyouchangeyour.mp42022-08-13 21:52 35M 
[VID]10418020802_20220813215157_CDCadmitsYOUGOTSUCKEREDifyoubelievedtheCOVIDlies.mp42022-08-13 21:51 19M 
[VID]10419011150_20220812224809_DEEPSTATEPONDSCUMTHEGREATAWAKENING.mp42022-08-12 22:48 36M 
[VID]10419011159_20220812224800_WhyDoTHESEPeopleHateUs.mp42022-08-12 22:48 18M 
[VID]10419011201_20220812224758_DeepStateRunningOutofMovesQuickly.mp42022-08-12 22:47 164M 
[VID]10419011208_20220812224751_CaptKeshelElectionFraudHasBeenGoingOnLongerThanPeopleReali.mp42022-08-12 22:47 62M 
[VID]10419011211_20220812224748_SituationUpdateAug122022Worldgovernmentsarepreparingforan.mp42022-08-12 22:47 123M 
[VID]10419011218_20220812224741_Ep2848aTheCBDSJustImplodedTheirEntireEconomicAgendaAn.mp42022-08-12 22:47 23M 
[VID]10419011227_20220812224732_SilentWarEp6245FBIRaidsTrumpTargetsPatriotsManAttacksFBIw.mp42022-08-12 22:47 19M 
[VID]10419011232_20220812224727_Ep2848bDSPushesViolenceAgendaPanicInDCDeclasBringsDown.mp42022-08-12 22:47 51M 
[VID]10419011237_20220812224722_PodcastTheMatterwithThingsPetersonandMcGilchrist.mp42022-08-12 22:47 290M 
[VID]10419011247_20220812224712_BREAKINGPOINTforAmericaSteveQuayleandMikeAdamswarnofthecomin.mp42022-08-12 22:47 145M 
[VID]10419011253_20220812224706_WillThisBeTheFinalNailintheFBICoffin.mp42022-08-12 22:47 163M 
[VID]10419011302_20220812224657_ShortHowDoWeDemarcatetheTooExtremeLeft.mp42022-08-12 22:46 3.1M 
[VID]10420083351_20220811152608_ShortMyThoughtsonOpenRelationships.mp42022-08-11 15:26 3.5M 
[VID]10420083353_20220811152606_81122CorruptedJUDGESEVILB1DENregimeFEARpushonALLlevelsD.mp42022-08-11 15:26 127M 
[VID]10420083358_20220811152601_SituationUpdateAug112022EmboldenedIRSdemandsnewhiresbewil.mp42022-08-11 15:26 145M 
[VID]10420083410_20220811152549_TerminatingtheGLOBALDIGITALENSLAVEMENTPLANwithSILVER.mp42022-08-11 15:25 74M 
[VID]10420083419_20220811152540_Ep2847aTheCBJBAttemptToSaveTheCollapsingEconomicNarrat.mp42022-08-11 15:25 31M 
[VID]10420083422_20220811152537_DeepStateFearIsCausingBadChoicesByThem.mp42022-08-11 15:25 161M 
[VID]10420083427_20220811152532_Ep2847bFBIRaidIsNotWhatYouThinkDSKnowsTheyLostNarrativ.mp42022-08-11 15:25 89M 
[VID]10420083445_20220811152514_BillGatesCuriousFamilyHistoryHisMom.mp42022-08-11 15:25 3.4M 
[VID]10420083449_20220811152510_TheConnectionBetweenSigmundFreudandEdwardBernays.mp42022-08-11 15:25 4.0M 
[VID]10421074514_20220810161445_ShortWhyFreeSpeechIsSuchanImportantValue.mp42022-08-10 16:14 2.8M 
[VID]10421074515_20220810161444_SituationUpdate81022LawmakerscallforNULLIFICATIONofcorrupt.mp42022-08-10 16:14 177M 
[VID]10421074522_20220810161437_TalkingAboutFBIRaidandMoreWithBabyTrump.mp42022-08-10 16:14 71M 
[VID]10421074526_20220810161433_THEDEEPSTATEPEDOFIXISINAGAINJUSTINOCONNELL.mp42022-08-10 16:14 63M 
[VID]10421074534_20220810161425_Ep2846bDoorHasBeenOpenedTheEnormityOfWhatIsComingWillShoc.mp42022-08-10 16:14 65M 
[VID]10421074537_20220810161422_TheDeepStateSteppedInItThisTime.mp42022-08-10 16:14 157M 
[VID]10421074543_20220810161416_ThereMightBeNoNaturalResourceOtherThanTrust.mp42022-08-10 16:14 1.9M 
[VID]10421074545_20220810161414_4Reasonstotryorganicwheatgrasspowder.mp42022-08-10 16:14 14M 
[VID]10422073836_20220809162123_8922VIDEOALWAYS10stepsaheadTheRAIDCoverupFEARmongeringW.mp42022-08-09 16:21 98M 
[VID]10422073843_20220809162116_WeCanSetupaWorldin15YearsWhereAbsolutelyEveryoneHadPlentytoE.mp42022-08-09 16:21 2.6M 
[VID]10422073845_20220809162114_5DifferentAttacksByTheDeepStatewithClayClark.mp42022-08-09 16:21 46M 
[VID]10422121944_20220809114015_SituationUpdateAug92022BidenregimewagesTERRORCRUSADEagain.mp42022-08-09 11:40 149M 
[VID]10422121954_20220809114005_SilentWarEp6244202140DeathTollIncreaseRussiaDEMSMadeC19.mp42022-08-09 11:40 33M 
[VID]10422122003_20220809113956_THISWILLCAUSEANUPRISING.mp42022-08-09 11:39 17M 
[VID]10422122005_20220809113954_PODCASTDeeperYetIntoTheWeedsPageauVervaekePeterson.mp42022-08-09 11:39 476M 
[VID]10422122023_20220809113936_Ep2845aTrumpWasRightAgainTheResidentWillBringThePeopleToT.mp42022-08-09 11:39 26M 
[VID]10422122033_20220809113926_WhyDoWeLikeSportsSoMuch.mp42022-08-09 11:39 2.7M 
[VID]10422122041_20220809113918_Ep2845bOperationDSStingIsActivePatriotsReadyToCleanOutT.mp42022-08-09 11:39 52M 
[VID]10423142109__CheatinginElectionsandStartingWarsisAllTheyHave.mp42022-08-08 17:53 142M 
[VID]10423060635_20220808175324_CheatinginElectionsandStartingWarsisAllTheyHave.mp42022-08-08 17:53 142M 
[VID]10423060646_20220808175313_TheDangerousPartOfSocialMediaAlgorithms.mp42022-08-08 17:53 2.9M 
[VID]10423060654_20220808175305_MassiveBACKLASHbuildingasparentsrealizecovidvaccinesKILLEDTH.mp42022-08-08 17:53 29M 
[VID]10423060730_20220808175229_SituationUpdate8822InflationReductionbilltounleashTAXTERRO.mp42022-08-08 17:52 171M 
[VID]10423060739_20220808175220_HiddenHisStoryofManDeepStateAct12DeepStateScienceTheyare.mp42022-08-08 17:52 489M 
[VID]10423060757_20220808175202_TheWINNINGcontinuesTRUMPwinsSTRAWPOLLManywakingupCaballos.mp42022-08-08 17:52 144M 
[VID]10423060845_20220808175114_SCIENCEPATENTSOFTHEZOMBIEAPOCALYPSE.mp42022-08-08 17:51 26M 
[VID]10422121944_20220809114015_SCIENCEPATENTSOFTHEZOMBIEAPOCALYPSE.mp42022-08-08 17:51 26M 
[VID]10423092052_20220808143907_TheLostBookofHerbalRemedies.mp42022-08-08 14:39 191M 
[VID]10423111345_20220808124614_20Facebook.mp42022-08-08 12:46 9.5M 
[VID]10423142101_20220808093858_SHTFPeopleareFREAKINGOUT.mp42022-08-08 11:25 56M 
[VID]10423123412_20220808112547_SHTFPeopleareFREAKINGOUT.mp42022-08-08 11:25 56M 
[VID]10423141544_20220808094415_JuanOSavinSharesGoodNewswithDeniseandJodi.mp42022-08-08 09:44 545M 
[VID]10423141740_20220808094219_JuanOSavinDroppingHydrogenBombsofTruthasHeAdvisestoPreparef.mp42022-08-08 09:42 469M 
[VID]10423141750_20220808094209_TruthvsNEWSPart17August2022withDonGrahnScottBennettandH.mp42022-08-08 09:42 336M 
[VID]10423141753_20220808094206_NinosCornerGeneDecodeIntelDropandOtherHugeUpdates.mp42022-08-08 09:42 357M 
[VID]10423141906_20220808094053_ClifHighCancerKhazariansTavistockCiaClassifiedShitThatRea.mp42022-08-08 09:40 243M 
[VID]10423141918_20220808094041_RESTOREDREPUBLICVIAAGCRUPDATEASOFAUGUST82022.mp42022-08-08 09:40 148M 
[VID]10423141953_20220808094006_NEWWORLDORDERTHEEVILOFFREEMASONRYNOWTHISISTHEMAINENEMY.mp42022-08-08 09:40 84M 
[VID]10423142052__QTheStateoftheNationasofAugust7th2022.mp42022-08-08 09:39 109M 
[VID]10423142006_20220808093953_QTheStateoftheNationasofAugust7th2022.mp42022-08-08 09:39 109M 
[VID]10426071645_20220805164314_ALIENWARSTHETRUESTORY.mp42022-08-08 09:39 22M 
[VID]10423142031_20220808093928_ALIENWARSTHETRUESTORY.mp42022-08-08 09:39 22M 
[VID]10423142038_20220808093921_ROGERWATERSTELLINGITOUT.mp42022-08-08 09:39 13M 
[VID]10423142052__QUSMilitaryArrestsPaulPelosiNancyPelosisHusbandforPedoph.mp42022-08-08 09:39 29M 
[VID]10423142044_20220808093915_QUSMilitaryArrestsPaulPelosiNancyPelosisHusbandforPedoph.mp42022-08-08 09:39 29M 
[VID]10423142052_20220808093907_PRESIDENTTRUMPHELDAMINIPRESSCONFERENCEBACKSTAGEATCPACYESTER.mp42022-08-08 09:39 50M 
[VID]10426071645__BARRYOBAMAHITLER.mp42022-08-08 09:38 10M 
[VID]10423142109_20220808093850_BARRYOBAMAHITLER.mp42022-08-08 09:38 10M 
[VID]10423142159_20220808093800_WhyisDrFauciSCAREDtoeventalktoherRedactedwithClaytonMorris.mp42022-08-08 09:38 125M 
[VID]10423142221_20220808093738_WhatUFOnewsCongressJUSTlearnedwillchangeeverythingRedactedwi.mp42022-08-08 09:37 97M 
[VID]10423142303_20220808093656_DemocratsmovetoWEAPONIZEtheIRSagainstmiddleclassRedactedwith.mp42022-08-08 09:36 104M 
[VID]10423142328_20220808093631_WhatPutinandChinajustdidtotheWEFisagamechangerRedactedwithCl.mp42022-08-08 09:36 70M 
[VID]10424023304__HowDoYouFindthePersonThatsRightforYouIstheWrongQuestion.mp42022-08-07 21:27 3.1M 
[VID]10424023252_20220807212707_HowDoYouFindthePersonThatsRightforYouIstheWrongQuestion.mp42022-08-07 21:27 3.1M 
[VID]10424023253_20220807212706_YouAreNotCommittedToSomethingUnlessYouAreWillingToSacrificeF.mp42022-08-07 21:27 21M 
[VID]10424023319__Ep2844aThereAreNowCallsToEndTheFedTheyWillGrowLouder.mp42022-08-07 21:27 24M 
[VID]10424023255_20220807212704_Ep2844aThereAreNowCallsToEndTheFedTheyWillGrowLouder.mp42022-08-07 21:27 24M 
[VID]10424023304_20220807212655_Ep2844bPanicInDCThePeopleHaveBeenShownTheWayD5Nothing.mp42022-08-07 21:26 54M 
[VID]10424023319_20220807212640_BillGatesCuriousFamilyHistoryPt1hisfather.mp42022-08-07 21:26 3.9M 
[VID]10424023414__WeContinueToDefeatTheDeepState.mp42022-08-07 21:26 165M 
[VID]10424023321_20220807212638_WeContinueToDefeatTheDeepState.mp42022-08-07 21:26 165M 
[VID]10424023408_20220807212551_ThereAreRealReasonsNottoStickOutFromtheHerd.mp42022-08-07 21:25 3.4M 
[VID]10424023304__ThereAreRealReasonsNottoStickOutFromtheHerd.mp42022-08-07 21:25 3.4M 
[VID]10424023410_20220807212549_Howcongressgetsawaywithinsidertrading.mp42022-08-07 21:25 4.1M 
[VID]10424023304__Howcongressgetsawaywithinsidertrading.mp42022-08-07 21:25 4.1M 
[VID]10424023412_20220807212547_IfYoureNotMovingForwardsYoureMovingBackwards.mp42022-08-07 21:25 31M 
[VID]10424023304__IfYoureNotMovingForwardsYoureMovingBackwards.mp42022-08-07 21:25 31M 
[VID]10424023252__IfYoureNotMovingForwardsYoureMovingBackwards.mp42022-08-07 21:25 31M 
[VID]10424023414_20220807212545_TheseLittleOnes.mp42022-08-07 21:25 127M 
[VID]10424023408__TheseLittleOnes.mp42022-08-07 21:25 127M 
[VID]10424023304__TheseLittleOnes.mp42022-08-07 21:25 127M 
[VID]10425023143__ThereAreNoRightsWithoutResponsibility.mp42022-08-06 21:29 2.1M 
[VID]10425023039_20220806212920_ThereAreNoRightsWithoutResponsibility.mp42022-08-06 21:29 2.1M 
[VID]10425023126_20220806212833_DeepStateMoneyTrainRunningOutofSteam.mp42022-08-06 21:28 141M 
[VID]10425023159__TheOnlyRealPersonYouCanCompareYourselftoIsYou.mp42022-08-06 21:28 3.2M 
[VID]10425023143_20220806212816_TheOnlyRealPersonYouCanCompareYourselftoIsYou.mp42022-08-06 21:28 3.2M 
[VID]10425023153_20220806212806_FearIsaPowerfulMotivator.mp42022-08-06 21:28 22M 
[VID]10425023159_20220806212800_MONKEYHOAXINTERNATIONALHEALTHPLANDEMICFORGLOBALSERFDOM.mp42022-08-06 21:28 54M 
[VID]10425023215_20220806212744_PeterNavarroDecertificationIsPossibleHistoryWillShowTheDS.mp42022-08-06 21:27 58M 
[VID]10425023159__PeterNavarroDecertificationIsPossibleHistoryWillShowTheDS.mp42022-08-06 21:27 58M 
[VID]10425023222_20220806212737_WhatifAlexJoneshadclaimednobodydiedfromVACCINES.mp42022-08-06 21:27 66M 
[VID]10425023039__WhatifAlexJoneshadclaimednobodydiedfromVACCINES.mp42022-08-06 21:27 66M 
[VID]10425023232_20220806212727_HumansDontLikeUncertainty.mp42022-08-06 21:27 4.3M 
[VID]10425023302__Ep2843aTheEconomicNarrativeIsGoingToCollapseAroundTheDS.mp42022-08-06 21:27 29M 
[VID]10425023245_20220806212714_Ep2843aTheEconomicNarrativeIsGoingToCollapseAroundTheDS.mp42022-08-06 21:27 29M 
[VID]10425023302__Ep2843bOpticsAreImportantWarLikePostureActivatedKeyUnloc.mp42022-08-06 21:27 61M 
[VID]10425023254_20220806212705_Ep2843bOpticsAreImportantWarLikePostureActivatedKeyUnloc.mp42022-08-06 21:27 61M 
[VID]10425023245__Ep2843bOpticsAreImportantWarLikePostureActivatedKeyUnloc.mp42022-08-06 21:27 61M 
[VID]10425023302_20220806212657_DraggingtheFoundersThroughtheMud.mp42022-08-06 21:26 14M 
[VID]10426171133__TheBluePrintForTheRedWaveWorksPerfectly.mp42022-08-05 17:33 161M 
[VID]10426071645__TheBluePrintForTheRedWaveWorksPerfectly.mp42022-08-05 17:33 161M 
[VID]10426062652_20220805173307_TheBluePrintForTheRedWaveWorksPerfectly.mp42022-08-05 17:33 161M 
[VID]10426071607__AnUphillTrajectoryIsBetterThanBeingSomewhereGood.mp42022-08-05 17:33 26M 
[VID]10426062659_20220805173300_AnUphillTrajectoryIsBetterThanBeingSomewhereGood.mp42022-08-05 17:33 26M 
[VID]10427075319__8522WONDERFULworldofDEMONICPANICWatchastheirPLANSWorldCru.mp42022-08-05 16:43 110M 
[VID]10426071607_20220805164352_8522WONDERFULworldofDEMONICPANICWatchastheirPLANSWorldCru.mp42022-08-05 16:43 110M 
[VID]10426171127__NarcissismIsaCamouflageStrategy.mp42022-08-05 16:43 4.2M 
[VID]10426071626_20220805164333_NarcissismIsaCamouflageStrategy.mp42022-08-05 16:43 4.2M 
[VID]10426171133__WhyYouShouldBuyArt.mp42022-08-05 16:43 26M 
[VID]10426071645__WhyYouShouldBuyArt.mp42022-08-05 16:43 26M 
[VID]10426071628_20220805164331_WhyYouShouldBuyArt.mp42022-08-05 16:43 26M 
[VID]10426171139__HiddenHisStoryofManDeepStateAct12DeepStateScienceTheyare.mp42022-08-05 16:43 697M 
[VID]10426071630_20220805164329_HiddenHisStoryofManDeepStateAct12DeepStateScienceTheyare.mp42022-08-05 16:43 697M 
[VID]10426171131__SituationUpdate8522FloridaGovDeSantisEVICTSSorosfundedst.mp42022-08-05 16:43 161M 
[VID]10426071645_20220805164314_SituationUpdate8522FloridaGovDeSantisEVICTSSorosfundedst.mp42022-08-05 16:43 161M 
[VID]10426171145__MAGAPATRIOTSARECRUSHINGITNATIONWIDE.mp42022-08-05 06:48 57M 
[VID]10426171127_20220805064832_MAGAPATRIOTSARECRUSHINGITNATIONWIDE.mp42022-08-05 06:48 57M 
[VID]10426171131_20220805064828_SilentWarEp6243RedwaveDespiteFraudRussiaUSAtWarRecession.mp42022-08-05 06:48 20M 
[VID]10426171133_20220805064826_TheBestofConservativeEducationLarryPArnnandDrJordanBPeterson.mp42022-08-05 06:48 187M 
[VID]10426071645__TheBestofConservativeEducationLarryPArnnandDrJordanBPeterson.mp42022-08-05 06:48 187M 
[VID]10426171139_20220805064820_Ep2842aAnotherEconomicPieceHasBeenPutIntoPlaceCBPanicS.mp42022-08-05 06:48 23M 
[VID]10426062659__Ep2842aAnotherEconomicPieceHasBeenPutIntoPlaceCBPanicS.mp42022-08-05 06:48 23M 
[VID]10426171142_20220805064817_Ep2842bDeSantisPavesTheWayForFuturePatriotsDoYouSeeWhats.mp42022-08-05 06:48 60M 
[VID]10426171139__Ep2842bDeSantisPavesTheWayForFuturePatriotsDoYouSeeWhats.mp42022-08-05 06:48 60M 
[VID]10426062659__Ep2842bDeSantisPavesTheWayForFuturePatriotsDoYouSeeWhats.mp42022-08-05 06:48 60M 
[VID]10426171145_20220805064814_ItLooksLikeWeBrokeTheCheatersSystem.mp42022-08-05 06:48 169M 
[VID]10427075310_20220804160649_SituationUpdateAug42022WhyChinaLOSESanyescalationinvolvin.mp42022-08-04 16:06 189M 
[VID]10427075338__TONIGHT730estLIVEwithFrank.mp42022-08-04 16:06 2.2M 
[VID]10427075319_20220804160640_TONIGHT730estLIVEwithFrank.mp42022-08-04 16:06 2.2M 
[VID]10427075343__RussellBrandJordanPetersonTheDangerOfPrideInTheAscensionOfH.mp42022-08-04 16:06 26M 
[VID]10427075324__RussellBrandJordanPetersonTheDangerOfPrideInTheAscensionOfH.mp42022-08-04 16:06 26M 
[VID]10427075320_20220804160639_RussellBrandJordanPetersonTheDangerOfPrideInTheAscensionOfH.mp42022-08-04 16:06 26M 
[VID]10427075413__PoliticiansAbdicatedTheirResponsibilitiestoPublicHealthExper.mp42022-08-04 16:06 16M 
[VID]10427075343__PoliticiansAbdicatedTheirResponsibilitiestoPublicHealthExper.mp42022-08-04 16:06 16M 
[VID]10427075324_20220804160635_PoliticiansAbdicatedTheirResponsibilitiestoPublicHealthExper.mp42022-08-04 16:06 16M 
[VID]10427075338_20220804160621_THEGREATRESETISTHEROADTOGLOBALSLAVERY.mp42022-08-04 16:06 46M 
[VID]10427075310__THEGREATRESETISTHEROADTOGLOBALSLAVERY.mp42022-08-04 16:06 46M 
[VID]10427075413__Ep2841bTheOffensiveIsBeingBuiltDSFellIntoTheTrapPainJ.mp42022-08-04 16:06 78M 
[VID]10427075343_20220804160616_Ep2841bTheOffensiveIsBeingBuiltDSFellIntoTheTrapPainJ.mp42022-08-04 16:06 78M 
[VID]10428082506__Ep2841aTheCBEconomyIsShowingTheNarrativeIsFallingApart.mp42022-08-04 16:05 21M 
[VID]10427075413_20220804160546_Ep2841aTheCBEconomyIsShowingTheNarrativeIsFallingApart.mp42022-08-04 16:05 21M 
[VID]10428055650_20220803180309_8322VIDEOSweepingVICTORIESEnemystillhasTRICKSinAZTaiwan.mp42022-08-03 18:03 104M 
[VID]10426071645_20220805164314_8322VIDEOSweepingVICTORIESEnemystillhasTRICKSinAZTaiwan.mp42022-08-03 18:03 104M 
[VID]10428055655_20220803180304_DemsArePanickingAllOverToday.mp42022-08-03 18:03 156M 
[VID]10428082506_20220803153453_Supporthealthyheartandliverfunctionwithorganicpumpkinseeds.mp42022-08-03 15:34 9.6M 
[VID]10428055655__Supporthealthyheartandliverfunctionwithorganicpumpkinseeds.mp42022-08-03 15:34 9.6M 
[VID]10428083107_20220803152852_HiddenHisStoryofManDeepStateAct11TheSeedWarTheWarofGogand.mp42022-08-03 15:28 616M 
[VID]10428055655__HiddenHisStoryofManDeepStateAct11TheSeedWarTheWarofGogand.mp42022-08-03 15:28 616M 
[VID]10428083120_20220803152839_SituationUpdate8322WorldgovernmentsPUBLICLYworshipsatanici.mp42022-08-03 15:28 173M 
[VID]10428055655__SituationUpdate8322WorldgovernmentsPUBLICLYworshipsatanici.mp42022-08-03 15:28 173M 
[VID]10428055655__Ep2840bTripConfirmedStayTunedWatch5Down5ToGoTheWorldI.mp42022-08-03 15:27 52M 
[VID]10428082506__THEMOCKINGBIRDMERCENARIESAREPUREEVILKerriRivera.mp42022-08-03 15:27 56M 
[VID]10428055655__THEMOCKINGBIRDMERCENARIESAREPUREEVILKerriRivera.mp42022-08-03 15:27 56M 
[VID]10428055655__Ep2840aTheCBWEFSlipsAgainUpAgainThePeopleAreCatchingO.mp42022-08-03 15:27 23M 
[VID]10428083120_20220803152839_HiddenHisStoryofManDeepStateAct11TheSeedWarTheWarofGogand.mp42022-08-01 13:47 384M 
[VID]10427075310_20220804160649_TheRawDeal29July2022withMichaelOgden.mp42022-07-30 13:10 141M 
[VID]10427075310_20220804160649_THEGREATSILVERCONSPIRACY.mp42022-07-28 22:57 56M 
[VID]10428083120_20220803152839_Ep2835bHowDoYouSetATrapWhoIsTheBaitHowDoYouShowThePeopleTh.mp42022-07-27 20:45 68M 
[VID]10423060730_20220808175229_SituationUpdate72722LunatictyrantZelenskyechoesNazifascist.mp42022-07-27 11:09 145M 
[VID]10426071645_20220805164314_72622ThePITisputtingFEARintotheENEMYThisBATTLEisabouttoHE.mp42022-07-27 11:09 100M 
[VID]10426071626_20220805164333_DrJaneRubyandtheHealthRangerrevealpostvaccineCLOTMYSTERIES.mp42022-07-27 11:08 77M 
[VID]10428083120_20220803152839_100000RISEUPtoSupportDUTCHFARMERSagainstGLOBALISTS.mp42022-07-27 11:07 12M 
[VID]10426071645_20220805164314_100000RISEUPtoSupportDUTCHFARMERSagainstGLOBALISTS.mp42022-07-27 11:07 12M 
[VID]10427075310__TimeForUsAllToSeeTheTruth.mp42022-07-26 20:43 363M 
[VID]__DrCarrieMadejpostplanecrashUPDATEwiththeHealthRangerHOWTOHE.mp42022-07-26 16:28 90M 
[VID]10427075310_20220804160649_SituationUpdate72622VaccinesmakingpeopleHYPERsensitivetoPO.mp42022-07-26 12:53 142M 
[VID]10427075310_20220804160649_Ep2833aTheEconomicCoverupBeginsPlaybookKnownNothingCanSt.mp42022-07-26 12:52 22M 
[VID]10426071645_20220805164314_Ep2833aTheEconomicCoverupBeginsPlaybookKnownNothingCanSt.mp42022-07-26 12:52 22M 
[VID]__SHOCKINGVideoofDragQueenClassroomShowsWhyHomeschoolingIsSURG.mp42022-07-25 18:54 38M 
[VID]10426071645_20220805164314_TheRealReasonTheyveCollectedYourDNA.mp42022-07-25 18:54 41M 
[VID]__SituationUpdate72522CattleLIQUIDATIONSnarrativetoCRUSH.mp42022-07-25 18:53 175M 
[VID]__SteveBannonLeavesTuckerSPEECHLESSonJ6Committee.mp42022-07-25 18:53 27M 
[VID]10427075310_20220804160649_RealDealSpecialReport21July2022NickKollerstromonTheJustWar.mp42022-07-22 11:14 75M 
[VID]10427075310__SilentWarEp6238JihadiUSSchoolsTransMoviesArmyDrainClimat.mp42022-07-22 05:24 34M 
[VID]10428083120_20220803152839_Ep2830aCorruptPoliticiansExposedPeopleAreFiguringItOutSo.mp42022-07-22 05:24 30M 
[VID]10427075310_20220804160649_PutinIssuesChillingWarningToTheWest.mp42022-07-21 16:06 44M 
[VID]__BlackBrutality.mp42022-07-21 16:06 18M 
[VID]__AWKinterviewwithTRADEGeniusJuly2022StillwaystoINVESTandWIN.mp42022-07-21 16:05 31M 
[VID]10428083120_20220803152839_AWKinterviewwithTRADEGeniusJuly2022StillwaystoINVESTandWIN.mp42022-07-21 16:05 31M 
[VID]__TheRawDeal18July2022withVegan818Chuckandothers.mp42022-07-20 11:49 148M 
[VID]__SilentWarEp6237TheyWantYourKidsWeaponizedFoodBornePathoge.mp42022-07-19 11:33 28M 

Apache/2.4.25 (Debian) Server at lu.netranger.org Port 80